Bush, KY

4:00 AM EDT on July 24, 2016 (GMT -0400)
London-Corbin / McKee

Weather History for KLOZ - December, 2012

Change the Weather History Date:

Tuesday, December 4, 2012

  Actual Average Record
Temperature  
Mean Temperature 57 °F 41 °F  
Max Temperature 66 °F 51 °F 77 °F (1982)
Min Temperature 47 °F 32 °F 13 °F (2000)
Degree Days  
Heating Degree Days 8 24  
Month to date heating degree days 36 93  
Since 1 July heating degree days 1090 923  
Cooling Degree Days 0 0  
Month to date cooling degree days 0 0  
Year to date cooling degree days 1226 1190  
Growing Degree Days 7 (Base 50)    
Moisture  
Dew Point 50 °F    
Average Humidity 70    
Maximum Humidity 83    
Minimum Humidity 56    
Precipitation  
Precipitation 0.05 in 0.14 in 2.28 in (1993)
Month to date precipitation 0.09 0.57  
Year to date precipitation 40.21 43.47  
Sea Level Pressure  
Sea Level Pressure 30.16 in    
Wind  
Wind Speed 5 mph (SW)    
Max Wind Speed 18 mph    
Max Gust Speed 28 mph    
Visibility 10 miles    
Events Rain    
T = Trace of Precipitation, MM = Missing Value Source: NWS Daily Summary

Daily Weather History Graph

Daily Weather History Graph

Search for Another Location

Airport or City:

Trip Planner

Search our weather history database for the weather conditions in past years. The results will help you decide how hot, cold, wet, or windy it might be!

Date:

Astronomy

Dec. 04, 2012 Rise Set
Actual Time 7:34 AM EST 5:19 PM EST
Civil Twilight 7:05 AM EST 5:47 PM EST
Nautical Twilight 6:33 AM EST 6:20 PM EST
Astronomical Twilight 6:01 AM EST 6:51 PM EST
Moon 11:00 PM EST (12/4) 11:32 AM EST (12/4)
Length of Visible Light 10h 42m
Length of Day
9h 44m
Waning Gibbous, 69% of the Moon is Illuminated
Dec 4
Waning Gibbous
Dec 6
Last Quarter
Dec 13
New
Dec 20
First Quarter
Dec 28
Full

Hourly Weather History & Observations

Time (EST) Temp. Dew Point Humidity Pressure Visibility Wind Dir Wind Speed Gust Speed Precip Events Conditions
1:53 AM 48.0 °F 43.0 °F 83% 30.19 in 10.0 mi Calm Calm - N/A   Scattered Clouds
2:53 AM 48.0 °F 43.0 °F 83% 30.19 in 10.0 mi Calm Calm - N/A   Partly Cloudy
3:53 AM 50.0 °F 45.0 °F 83% 30.18 in 10.0 mi Calm Calm - N/A   Mostly Cloudy
4:53 AM 52.0 °F 46.0 °F 80% 30.17 in 10.0 mi Calm Calm - N/A   Overcast
5:53 AM 54.0 °F 48.0 °F 80% 30.18 in 10.0 mi Calm Calm - N/A   Overcast
6:53 AM 54.0 °F 48.0 °F 80% 30.18 in 10.0 mi Calm Calm - N/A   Overcast
7:53 AM 57.0 °F 48.9 °F 74% 30.19 in 10.0 mi SSE 3.5 mph - N/A   Overcast
8:53 AM 57.9 °F 51.1 °F 78% 30.20 in 10.0 mi Calm Calm - 0.00 in Rain Light Rain
9:53 AM 61.0 °F 51.1 °F 70% 30.20 in 10.0 mi South 4.6 mph - 0.00 in   Overcast
10:53 AM 62.1 °F 53.1 °F 72% 30.20 in 10.0 mi Calm Calm - 0.00 in Rain Light Rain
11:53 AM 64.9 °F 52.0 °F 63% 30.17 in 10.0 mi SSW 11.5 mph - 0.00 in   Overcast
12:53 PM 66.0 °F 52.0 °F 60% 30.16 in 10.0 mi SW 9.2 mph - N/A   Overcast
1:53 PM 64.0 °F 52.0 °F 65% 30.15 in 10.0 mi SSW 12.7 mph 23.0 mph 0.00 in   Overcast
2:53 PM 66.0 °F 51.1 °F 59% 30.11 in 10.0 mi SSW 12.7 mph - N/A   Overcast
3:53 PM 66.0 °F 50.0 °F 56% 30.11 in 10.0 mi SSW 9.2 mph 18.4 mph N/A   Mostly Cloudy
4:53 PM 64.9 °F 50.0 °F 58% 30.12 in 10.0 mi SSW 12.7 mph 18.4 mph N/A   Overcast
5:53 PM 64.0 °F 51.1 °F 63% 30.14 in 10.0 mi SW 8.1 mph - 0.00 in Rain Light Rain
6:53 PM 60.1 °F 53.1 °F 78% 30.15 in 10.0 mi SSW 8.1 mph - 0.03 in Rain Light Rain
7:53 PM 57.9 °F 53.1 °F 84% 30.14 in 10.0 mi South 3.5 mph - 0.00 in   Mostly Cloudy
8:53 PM 59.0 °F 52.0 °F 78% 30.13 in 10.0 mi SSW 5.8 mph - N/A   Overcast
9:53 PM 60.1 °F 52.0 °F 75% 30.12 in 10.0 mi SW 4.6 mph - N/A   Mostly Cloudy
10:53 PM 60.1 °F 52.0 °F 75% 30.12 in 10.0 mi WSW 4.6 mph - N/A   Overcast
11:08 PM 60.8 °F 53.6 °F 77% 30.14 in 10.0 mi WSW 6.9 mph - N/A   Overcast
11:44 PM 53.6 °F 51.8 °F 94% 30.17 in 6.0 mi North 18.4 mph 24.2 mph 0.02 in Rain Light Rain
11:51 PM 51.8 °F 48.2 °F 88% 30.18 in 10.0 mi North 15.0 mph 21.9 mph 0.02 in Rain Light Rain
11:53 PM 51.1 °F 48.9 °F 92% 30.17 in 10.0 mi North 15.0 mph 21.9 mph 0.02 in Rain Light Rain